PBO Station Position Time Series. Reference Frame : NAM14
Format Version,1.1.1
4-character ID,SLID
Station name,SLID_BRGN_NV1997
Begin Date, 1997-08-12
End Date, 2023-01-17
Release Date, 2023-06-22
Reference position, 39.3142772913 North Latitude, -119.8842883634 East Longitude, 2902.53165 meters elevation,
Date, North (mm), East (mm), Vertical (mm), North Std. Deviation (mm), East Std. Deviation (mm),              Vertical Std. Deviation (mm), Quality,
1997-08-12,0.00, 0.00, 0.00, 2.52, 2.03, 9.26, repro,
1997-08-13,1.19, -1.07, 2.35, 3.14, 2.72, 11.53, repro,
1997-08-14,-1.93, -3.21, 11.25, 2.78, 2.43, 10.48, repro,
1997-08-15,-1.47, -1.44, 5.17, 2.80, 2.41, 10.48, repro,
1997-08-16,1.48, -2.24, 3.42, 2.40, 1.95, 8.87, repro,
1997-08-17,1.85, -3.74, 4.05, 2.40, 1.95, 8.93, repro,
1997-08-18,1.12, -2.23, 8.85, 2.36, 1.92, 8.63, repro,
1997-08-19,1.38, 0.06, 6.60, 2.44, 2.03, 9.26, repro,
1997-08-20,2.19, -2.47, 1.51, 2.39, 1.99, 9.10, repro,
1997-08-21,2.80, -1.26, 1.34, 2.38, 1.98, 8.94, repro,
1997-08-22,1.50, -2.30, -1.05, 2.42, 2.00, 9.19, repro,
1997-08-23,1.64, -1.97, 4.51, 2.48, 2.03, 9.43, repro,
1997-08-24,0.44, -5.87, 5.83, 2.50, 2.07, 9.44, repro,
1997-08-25,0.72, -1.37, 7.90, 2.52, 2.09, 9.77, repro,
1997-08-26,1.85, -0.69, 1.07, 2.35, 1.97, 8.79, repro,
1997-08-27,0.48, -3.77, 7.56, 2.36, 1.93, 8.65, repro,
1997-08-28,87.30, 33.13, 70.35, 1039.24, 685.32, 1855.84, repro,
1997-09-15,-80.26, -39.55, -95.40, 611.60, 491.07, 963.74, repro,
1997-09-16,-4.81, 19.14, 6.61, 160.00, 219.57, 323.30, repro,
1997-09-17,-17.95, -26.76, 25.88, 363.32, 257.87, 742.06, repro,
1997-09-18,-41.85, -117.04, 66.60, 255.57, 618.44, 945.17, repro,
1997-09-19,-18.05, -26.24, -33.44, 725.90, 342.95, 1269.97, repro,
1997-09-20,32.32, 17.04, 31.61, 166.35, 563.81, 326.91, repro,
1997-09-21,458.81, 224.63, 591.01, 1952.39, 834.10, 2484.70, repro,
1997-09-22,-20.44, -28.96, -61.62, 122.25, 243.22, 431.92, repro,
1997-09-23,1.97, -3.22, 6.97, 2.39, 1.91, 8.52, repro,
1997-09-24,-18.91, -38.44, -15.95, 69.21, 101.97, 151.90, repro,
1997-09-25,-0.40, -2.14, -31.10, 57.50, 16.52, 118.28, repro,
1997-09-26,1.72, -1.89, -19.06, 12.11, 10.29, 55.00, repro,
1997-09-27,-32.14, -115.13, -24.87, 48.96, 203.29, 107.87, repro,
1997-09-28,10.28, -24.25, -68.04, 17.57, 13.44, 97.93, repro,
1997-09-29,9.10, -8.33, -66.33, 13.40, 45.19, 98.69, repro,
1997-09-30,-0.17, -3.99, -0.18, 11.73, 8.52, 47.28, repro,
1997-10-01,-0.34, -6.07, 17.43, 9.76, 7.70, 36.48, repro,
1997-10-02,-0.54, -1.70, 21.80, 13.03, 7.79, 37.46, repro,
1997-10-03,0.65, -4.62, 13.72, 9.24, 6.83, 31.39, repro,
1997-10-04,-5.42, -7.10, -12.59, 9.68, 8.46, 37.80, repro,
1997-10-05,3.74, -3.92, 9.04, 2.99, 2.47, 11.08, repro,
1997-10-06,1.02, -5.10, 28.49, 3.04, 2.55, 11.60, repro,
1997-10-07,0.60, -4.10, 10.29, 3.01, 2.45, 11.34, repro,
1997-10-08,1.19, -6.86, 8.51, 3.00, 2.48, 11.41, repro,
1997-10-09,-2.74, -1.23, 17.75, 3.01, 2.51, 11.43, repro,
1997-10-10,2.40, 0.09, 4.42, 3.05, 2.49, 11.40, repro,
1997-10-11,0.02, -1.74, 15.38, 3.02, 2.53, 11.41, repro,
1997-10-12,-0.34, -1.78, 10.68, 3.02, 2.53, 11.50, repro,
1997-10-13,1.92, -1.98, -6.35, 3.05, 2.45, 11.07, repro,
1997-10-14,2.03, -1.65, 12.64, 3.21, 2.58, 11.47, repro,
1997-10-15,-0.53, -0.53, 2.88, 3.14, 2.54, 11.59, repro,
1997-10-16,0.57, -1.36, 2.08, 3.15, 2.56, 11.66, repro,
1997-10-17,-0.23, -2.01, 10.74, 3.17, 2.66, 12.00, repro,
1997-10-18,0.15, -1.42, 8.01, 3.11, 2.57, 11.65, repro,
1997-10-19,1.42, -2.61, 10.58, 3.11, 2.56, 11.45, repro,
1997-10-20,0.62, -3.57, 4.79, 3.31, 2.76, 12.00, repro,
1997-10-21,2.16, -2.58, 6.41, 3.19, 2.70, 11.88, repro,
1997-10-22,1.56, -1.82, 11.33, 3.33, 2.77, 11.90, repro,
1997-10-24,1.62, -3.41, 1.38, 2.51, 1.94, 8.88, repro,
1997-10-25,1.37, -2.44, 4.40, 2.57, 1.96, 9.17, repro,
1997-10-26,0.89, -2.05, 3.14, 2.41, 1.96, 8.83, repro,
1997-10-27,0.01, -1.38, 4.43, 2.97, 2.40, 10.77, repro,
1997-10-28,0.36, -3.55, 1.26, 2.89, 2.30, 10.69, repro,
1997-10-29,-2.98, -9.17, 6.32, 2.93, 2.35, 10.93, repro,
1997-10-30,1.47, -4.17, -4.96, 2.87, 2.30, 10.68, repro,
1997-10-31,3.85, -3.13, -2.22, 2.97, 2.46, 11.03, repro,
1997-11-01,1.55, -4.46, -4.16, 2.39, 1.92, 8.71, repro,
1997-11-02,1.46, -0.87, 13.99, 3.00, 2.47, 11.29, repro,
1997-11-03,-1.39, -3.64, 5.38, 2.61, 2.05, 9.36, repro,
1997-11-04,0.41, -1.62, -0.01, 2.98, 2.32, 10.98, repro,
1997-11-05,1.39, 0.19, 10.16, 3.00, 2.49, 11.14, repro,
1997-11-06,1.35, -2.99, 0.63, 3.03, 2.36, 11.28, repro,
1997-11-07,0.82, -2.55, -3.06, 3.01, 2.46, 10.94, repro,
1997-11-08,1.89, -4.75, 2.96, 2.89, 2.37, 10.75, repro,
1997-11-09,1.32, -3.17, 2.68, 2.90, 2.35, 10.73, repro,
1997-11-10,-3.08, -3.66, 9.17, 3.35, 2.59, 11.69, repro,
1997-11-11,2.84, -3.08, 8.82, 2.92, 2.39, 10.81, repro,
1997-11-12,-0.62, -3.81, -7.97, 2.95, 2.35, 10.77, repro,
1997-11-13,0.56, -2.30, 16.20, 2.97, 2.31, 10.62, repro,
1997-11-14,-0.61, -2.73, 5.17, 2.91, 2.33, 10.58, repro,
1997-11-15,-0.70, -3.40, 4.52, 2.93, 2.33, 10.69, repro,
1997-11-16,2.26, -4.40, 0.42, 2.96, 2.35, 10.60, repro,
1997-11-17,0.17, -5.49, 15.37, 3.08, 2.50, 10.99, repro,
1997-11-18,-0.25, -6.64, 12.22, 2.51, 2.08, 9.32, repro,
1997-11-19,-1.06, -7.15, 31.98, 3.07, 2.37, 10.80, repro,
1997-11-20,1.55, -3.51, 27.63, 3.28, 2.64, 11.81, repro,
1997-11-21,0.06, -6.37, 1.40, 3.69, 2.79, 12.00, repro,
1997-11-22,3.82, -11.44, -5.74, 3.30, 2.47, 11.70, repro,
1997-11-23,-0.72, -3.70, 12.46, 3.08, 2.37, 10.90, repro,
1997-11-24,2.04, -4.43, 5.19, 3.04, 2.36, 10.58, repro,
1997-11-25,1.61, -4.65, 5.63, 3.04, 2.36, 10.64, repro,
1997-11-26,1.39, -3.88, 5.97, 3.18, 2.40, 10.99, repro,
1997-11-28,0.70, -5.49, 8.93, 3.03, 2.39, 10.70, repro,
1997-11-29,-0.20, -4.66, 0.11, 3.02, 2.36, 10.52, repro,
1997-11-30,0.67, -4.87, 12.24, 2.99, 2.30, 10.28, repro,
1997-12-01,0.34, -4.75, 11.55, 3.25, 2.60, 11.00, repro,
1997-12-02,-1.64, -3.65, 4.05, 2.99, 2.37, 10.64, repro,
1997-12-03,0.40, -4.72, 8.05, 3.33, 2.52, 12.08, repro,
1997-12-04,0.58, -3.64, 3.51, 3.03, 2.34, 10.77, repro,
1997-12-05,-0.17, -2.04, 7.44, 3.17, 2.38, 11.20, repro,
1997-12-06,0.16, -3.55, -0.13, 2.74, 2.12, 9.84, repro,
1997-12-08,0.48, -3.81, 8.71, 2.96, 2.27, 10.32, repro,
1997-12-09,-0.30, -1.02, 13.43, 3.00, 2.28, 10.40, repro,
1997-12-10,-1.76, -3.03, 7.92, 3.09, 2.39, 11.30, repro,
1997-12-11,-2.15, -1.07, -6.99, 3.04, 2.37, 10.96, repro,
1997-12-12,-1.63, -3.90, 1.28, 3.03, 2.36, 10.96, repro,
1997-12-13,1.07, -3.73, 0.21, 2.96, 2.30, 10.60, repro,
1997-12-14,2.14, -2.24, -5.04, 3.00, 2.32, 10.84, repro,
1997-12-15,0.76, -5.60, 4.42, 4.07, 3.20, 15.04, repro,
1997-12-16,0.37, -6.15, -10.59, 2.48, 1.91, 8.91, repro,
1997-12-22,-0.80, -3.25, -1.30, 3.08, 2.31, 10.77, repro,
1997-12-23,0.65, -5.37, -4.86, 3.19, 2.44, 11.16, repro,
1997-12-24,-3.16, -5.54, -4.87, 3.06, 2.32, 10.78, repro,
1997-12-25,1.21, -4.21, -7.89, 3.13, 2.33, 10.68, repro,
1997-12-26,-0.29, -2.11, -3.74, 3.02, 2.27, 10.44, repro,
1997-12-27,0.01, -4.94, -13.38, 3.09, 2.32, 10.70, repro,
1997-12-28,-2.86, -5.91, -12.32, 3.04, 2.32, 10.66, repro,
1997-12-29,-0.80, -4.37, -10.63, 3.07, 2.37, 10.77, repro,
1997-12-30,-0.85, -2.68, -4.18, 3.19, 2.46, 11.14, repro,
1997-12-31,-2.40, -3.97, -14.01, 3.05, 2.37, 10.97, repro,
1998-01-01,-0.82, -3.52, -17.41, 3.03, 2.25, 10.37, repro,
1998-01-02,2.12, -2.79, -2.64, 3.53, 2.67, 13.30, repro,
1998-01-03,-2.04, -4.56, -6.40, 3.17, 2.30, 11.03, repro,
1998-01-04,-0.01, -3.18, -2.16, 3.13, 2.33, 10.85, repro,
1998-01-22,0.39, -3.06, -28.92, 4.52, 3.74, 15.47, repro,
1998-01-23,-1.78, -6.78, -9.44, 2.41, 1.91, 8.77, repro,
1998-01-24,-1.03, -7.79, -15.81, 3.14, 2.45, 10.84, repro,
1998-01-25,1.30, -6.42, 0.61, 3.01, 2.39, 10.57, repro,
1998-01-26,-1.66, -5.38, -20.23, 3.09, 2.37, 10.87, repro,
1998-01-27,-0.34, -6.64, -9.62, 3.01, 2.43, 10.66, repro,
1998-01-28,-1.00, -5.71, -2.76, 3.14, 2.40, 11.10, repro,
1998-01-29,1.23, -6.30, -0.10, 3.15, 2.43, 11.04, repro,
1998-01-30,0.08, -5.69, -7.62, 2.95, 2.30, 10.20, repro,
1998-01-31,-1.45, -6.75, -5.99, 2.98, 2.40, 10.64, repro,
1998-02-01,0.35, -7.92, -0.96, 3.03, 2.36, 10.68, repro,
1998-02-02,-0.88, -6.25, 0.34, 2.83, 2.28, 9.91, repro,
1998-02-03,-1.21, -6.49, 15.27, 2.79, 2.24, 9.78, repro,
1998-02-04,-1.08, -6.89, -6.79, 2.92, 2.36, 10.26, repro,
1998-02-05,-0.87, -6.46, -5.28, 2.97, 2.43, 10.63, repro,
1998-02-06,-0.32, -3.65, 7.79, 2.95, 2.39, 10.39, repro,
1998-02-07,-1.22, -4.32, -4.53, 2.91, 2.33, 10.16, repro,
1998-02-08,0.14, -4.31, 1.48, 2.93, 2.41, 10.45, repro,
1998-02-09,2.79, -3.79, 2.89, 3.01, 2.36, 10.42, repro,
1998-02-10,2.05, -4.36, -20.88, 2.99, 2.39, 10.67, repro,
1998-02-11,-0.12, -7.26, -13.50, 2.97, 2.37, 10.50, repro,
1998-02-12,1.88, -5.99, 4.22, 2.89, 2.32, 10.25, repro,
1998-02-13,0.22, -7.93, -11.47, 2.91, 2.31, 10.24, repro,
1998-02-14,1.67, -5.48, 8.25, 2.91, 2.35, 10.42, repro,
1998-02-15,0.13, -9.01, -2.29, 2.97, 2.42, 10.65, repro,
1998-02-16,-2.08, -4.95, -7.63, 2.95, 2.47, 10.82, repro,
1998-02-17,-3.34, -7.45, -10.27, 3.04, 2.41, 10.75, repro,
1998-02-18,-0.71, -5.36, -14.28, 2.44, 2.03, 8.98, repro,
1998-02-19,-1.87, -5.12, -17.49, 3.07, 2.45, 10.86, repro,
1998-02-20,-2.32, -6.04, -16.15, 2.97, 2.39, 10.56, repro,
1998-02-21,-4.97, -8.78, -2.80, 2.99, 2.37, 10.69, repro,
1998-02-22,-4.27, -9.36, -14.17, 3.10, 2.45, 11.34, repro,
1998-02-23,-0.62, -6.55, -4.15, 2.98, 2.35, 10.75, repro,
1998-02-24,-2.12, -7.47, -8.89, 2.90, 2.37, 10.79, repro,
1998-02-25,-2.04, -11.97, -21.51, 2.97, 2.36, 10.72, repro,
1998-02-26,-1.21, -11.28, -16.30, 2.94, 2.51, 11.41, repro,
1998-02-27,-3.03, -12.62, -20.50, 2.92, 2.46, 10.98, repro,
1998-02-28,-2.22, -10.76, -20.76, 2.94, 2.50, 11.07, repro,
1998-03-02,-3.43, -10.59, -23.31, 2.94, 2.32, 10.55, repro,
1998-03-03,-2.03, -8.45, -22.44, 2.98, 2.31, 10.60, repro,
1998-03-04,-4.08, -8.84, -17.42, 2.83, 2.30, 10.47, repro,
1998-03-05,-2.08, -8.52, -12.33, 2.81, 2.32, 10.41, repro,
1998-03-06,-0.60, -7.64, -8.01, 2.17, 1.78, 7.83, repro,
1998-03-07,-1.74, -7.30, -18.89, 3.02, 2.44, 11.18, repro,
1998-03-08,-1.54, -7.85, -23.94, 2.23, 1.85, 8.17, repro,
1998-03-09,-1.78, -8.45, -16.03, 2.85, 2.35, 10.60, repro,
1998-03-10,-1.31, -7.83, -14.44, 2.99, 2.45, 11.16, repro,
1998-03-11,-1.18, -8.41, -18.64, 2.95, 2.40, 10.79, repro,
1998-03-12,-1.39, -7.09, -11.85, 2.23, 1.87, 8.23, repro,
1998-03-13,0.88, -9.85, -17.05, 4.49, 3.82, 15.24, repro,
1998-03-14,-1.52, -8.31, -15.04, 2.22, 1.84, 8.17, repro,
1998-03-15,-4.24, -7.34, -14.48, 2.86, 2.35, 10.45, repro,
1998-03-16,-2.79, -7.42, -18.35, 2.86, 2.31, 10.33, repro,
1998-03-17,-0.73, -13.02, -16.33, 2.88, 2.44, 10.67, repro,
1998-03-18,-0.83, -9.39, -5.33, 2.84, 2.30, 10.25, repro,
1998-03-19,-2.33, -7.39, -9.44, 2.86, 2.33, 10.42, repro,
1998-03-20,-1.67, -8.58, -13.30, 2.83, 2.33, 10.43, repro,
1998-03-21,2.81, -7.61, -22.54, 2.85, 2.31, 10.27, repro,
1998-03-22,2.93, 0.68, -29.30, 2.82, 2.33, 10.34, repro,
1998-03-23,0.62, -9.54, -1.21, 2.84, 2.38, 10.41, repro,
1998-04-10,-1.56, -4.82, -24.50, 4.40, 3.78, 18.02, repro,
1998-04-11,-5.02, -11.45, -12.53, 4.92, 4.23, 19.61, repro,
1998-04-12,-1.49, -8.84, -18.45, 2.32, 1.92, 8.38, repro,
1998-04-13,-2.88, -9.02, -23.33, 2.29, 1.82, 8.11, repro,
1998-04-14,-1.47, -9.08, -15.43, 2.25, 1.80, 8.05, repro,
1998-04-15,-3.59, -8.55, -18.84, 2.31, 1.87, 8.33, repro,
1998-04-16,-1.65, -9.13, -15.78, 2.35, 1.92, 8.41, repro,
1998-04-17,-2.96, -9.82, -23.43, 2.34, 1.88, 8.23, repro,
1998-04-18,-1.35, -8.01, -17.89, 2.24, 1.81, 8.09, repro,
1998-04-19,-1.66, -8.67, -21.66, 2.18, 1.78, 7.90, repro,
1998-04-20,-2.79, -8.66, -17.10, 2.21, 1.81, 8.08, repro,
1998-04-21,-2.87, -8.11, -12.06, 2.27, 1.82, 8.13, repro,
1998-04-22,-2.41, -9.02, -12.60, 2.23, 1.85, 8.07, repro,
1998-04-23,-3.14, -9.85, -15.55, 2.20, 1.77, 7.96, repro,
1998-04-24,-1.65, -7.66, -20.66, 2.19, 1.80, 8.06, repro,
1998-04-25,-1.19, -9.35, -4.39, 2.17, 1.79, 7.95, repro,
1998-04-26,-2.49, -8.06, -10.68, 2.18, 1.80, 7.98, repro,
1998-04-27,-3.47, -9.31, -13.87, 2.16, 1.79, 7.96, repro,
1998-04-28,-2.56, -9.51, -10.86, 2.23, 1.86, 8.31, repro,
1998-04-29,-2.57, -8.69, -11.52, 2.25, 1.82, 8.16, repro,
1998-04-30,-1.70, -7.83, -9.42, 2.18, 1.78, 7.95, repro,
1998-05-01,-2.64, -6.85, -14.30, 2.17, 1.81, 8.01, repro,
1998-05-02,0.82, -7.46, -5.70, 2.23, 1.84, 8.20, repro,
1998-05-03,-1.94, -8.17, -1.05, 2.21, 1.81, 8.05, repro,
1998-05-04,-2.39, -8.59, -8.24, 2.31, 1.85, 8.48, repro,
1998-05-05,-1.06, -8.35, -10.88, 2.20, 1.81, 8.07, repro,
1998-05-06,-2.40, -8.64, -1.13, 2.22, 1.86, 8.22, repro,
1998-05-07,-2.35, -7.97, -15.33, 2.19, 1.80, 7.98, repro,
1998-05-08,-3.51, -8.06, -9.26, 2.21, 1.81, 8.07, repro,
1998-05-09,-2.84, -8.81, -6.88, 2.16, 1.77, 7.90, repro,
1998-05-10,-2.76, -6.96, -11.74, 2.17, 1.78, 7.94, repro,
1998-05-11,-2.99, -8.00, -2.57, 2.16, 1.78, 7.92, repro,
1998-05-12,-1.18, -9.77, -2.30, 2.16, 1.77, 7.82, repro,
1998-05-13,-2.44, -9.21, -3.60, 2.17, 1.79, 8.04, repro,
1998-05-14,-2.09, -8.47, 0.52, 2.19, 1.80, 8.01, repro,
1998-05-16,-2.51, -9.40, -7.49, 2.17, 1.76, 7.92, repro,
1998-05-17,-1.85, -7.78, -12.12, 2.16, 1.77, 7.87, repro,
1998-05-19,-0.88, -8.57, -12.45, 2.16, 1.80, 7.92, repro,
1998-05-20,-2.59, -10.06, -17.32, 2.27, 1.83, 8.10, repro,
1998-05-21,-1.75, -8.03, -10.40, 2.24, 1.86, 8.15, repro,
1998-05-22,-1.90, -9.70, -11.25, 2.28, 1.91, 8.30, repro,
1998-05-23,0.13, -7.07, -14.37, 2.24, 1.85, 8.22, repro,
1998-05-24,-1.94, -8.91, -13.99, 2.19, 1.80, 7.98, repro,
1998-05-25,-0.93, -10.29, -13.64, 2.26, 1.90, 8.27, repro,
1998-05-26,-2.24, -10.46, -11.20, 2.27, 1.85, 8.25, repro,
1998-05-27,-1.15, -11.05, -14.40, 2.28, 1.87, 8.27, repro,
1998-05-28,-1.38, -8.15, -7.72, 2.25, 1.89, 8.17, repro,
1998-05-29,-2.12, -9.01, -18.36, 2.26, 1.90, 8.25, repro,
1998-05-30,-1.62, -9.03, -16.43, 2.25, 1.89, 8.19, repro,
1998-05-31,-2.08, -8.93, -10.45, 2.29, 1.91, 8.26, repro,
1998-06-01,-1.59, -8.20, -8.88, 2.23, 1.88, 8.11, repro,
1998-06-02,-2.59, -8.43, -7.75, 2.24, 1.90, 8.16, repro,
1998-06-03,-0.75, -8.12, -9.83, 2.21, 1.89, 8.11, repro,
1998-06-04,-0.73, -7.75, -11.32, 2.23, 1.87, 8.13, repro,
1998-06-05,-1.96, -7.94, -14.48, 2.23, 1.96, 8.39, repro,
1998-08-03,7.43, -2.44, -15.23, 13.88, 13.33, 37.08, repro,
1998-08-04,-0.23, -4.03, -0.19, 2.23, 1.85, 8.12, repro,
1998-08-05,-0.18, -4.41, -2.95, 2.28, 1.86, 8.44, repro,
1998-08-06,-0.71, -3.02, -0.34, 2.19, 1.82, 8.02, repro,
1998-08-07,-0.58, -3.71, -6.21, 2.22, 1.83, 8.21, repro,
1998-08-08,-1.05, -5.25, -0.80, 2.22, 1.84, 8.24, repro,
1998-08-09,-0.36, -4.37, -0.80, 2.19, 1.82, 8.07, repro,
1998-08-10,2.12, -4.32, -4.58, 2.20, 1.83, 8.04, repro,
1998-08-11,-1.25, -3.16, 4.60, 2.18, 1.81, 7.94, repro,
1998-08-12,-0.51, -3.80, 3.93, 2.18, 1.80, 7.99, repro,
1998-08-13,0.81, -1.86, -11.56, 2.15, 1.78, 7.84, repro,
1998-10-06,1.23, -3.84, 6.15, 2.97, 2.43, 10.45, repro,
1998-10-07,1.75, -4.02, 2.19, 2.49, 2.04, 8.73, repro,
1998-10-08,1.01, -4.18, 0.88, 2.62, 2.27, 9.53, repro,
1998-10-09,1.80, -5.08, -9.54, 2.69, 2.31, 9.65, repro,
1998-10-10,1.73, -5.95, -11.07, 2.34, 2.03, 8.51, repro,
1998-10-11,-0.02, -5.71, -6.51, 2.46, 2.07, 8.93, repro,
1998-10-12,1.22, -6.19, -1.60, 2.66, 2.42, 9.82, repro,
1998-10-13,1.16, -3.35, -5.65, 2.42, 2.04, 8.45, repro,
1998-10-14,0.89, -2.89, 0.20, 2.49, 2.03, 8.98, repro,
1998-10-15,1.52, -3.64, -0.91, 2.49, 2.00, 8.91, repro,
1998-10-16,-0.17, -4.44, -11.57, 2.44, 2.00, 8.67, repro,
1998-10-18,-0.82, -3.05, -9.56, 2.55, 2.26, 9.36, repro,
1998-10-19,1.03, -4.26, -11.49, 2.60, 2.20, 9.26, repro,
1998-10-20,0.20, -4.05, -9.77, 2.45, 2.02, 8.95, repro,
1998-10-21,0.73, -3.97, -2.79, 2.38, 2.00, 8.56, repro,
1998-10-22,0.73, -5.27, -5.91, 2.40, 2.00, 8.57, repro,
1998-10-23,-0.24, -4.72, -13.34, 2.45, 2.03, 8.77, repro,
1998-10-24,1.12, -4.67, -8.76, 2.58, 2.19, 9.24, repro,
1998-10-25,1.64, -4.87, -0.69, 2.24, 1.86, 8.09, repro,
1998-10-26,0.35, -3.85, 8.82, 2.36, 1.97, 8.26, repro,
1998-11-30,-1.15, 2.05, 12.72, 2.37, 1.96, 8.68, repro,
1998-12-01,-2.21, 1.09, 16.42, 2.38, 1.89, 8.53, repro,
1998-12-02,0.98, -8.77, -1.98, 2.30, 1.85, 8.41, repro,
1998-12-03,0.54, -0.77, 11.47, 2.26, 1.80, 8.11, repro,
1998-12-04,-2.02, -2.40, 19.56, 2.26, 1.83, 8.24, repro,
1998-12-05,-2.89, 0.65, 12.83, 2.35, 1.92, 8.37, repro,
1998-12-06,-4.49, -1.15, 15.88, 2.28, 1.88, 8.24, repro,
1998-12-07,-1.86, -3.36, 7.24, 2.26, 1.92, 8.38, repro,
1998-12-08,2.10, -4.72, -20.94, 2.73, 2.17, 9.97, repro,
1998-12-09,2.12, -3.09, -13.10, 2.36, 1.94, 8.36, repro,
1998-12-10,0.44, -3.88, -19.32, 2.26, 1.98, 8.59, repro,
1998-12-11,1.09, -8.19, -11.96, 2.39, 2.14, 9.10, repro,
1998-12-12,0.13, -6.22, -14.73, 2.34, 1.99, 8.68, repro,
1998-12-13,-0.36, -6.27, -9.15, 2.30, 1.97, 8.54, repro,
1998-12-14,0.09, -5.70, -4.13, 2.40, 1.97, 9.09, repro,
1998-12-15,0.38, -5.48, -22.73, 2.26, 1.89, 8.52, repro,
1998-12-16,0.43, -5.60, -19.40, 2.30, 1.99, 8.67, repro,
1998-12-17,0.22, -4.53, -13.12, 2.17, 1.84, 8.14, repro,
1998-12-18,0.63, -5.23, -8.72, 2.39, 1.96, 8.82, repro,
1998-12-19,1.68, -6.48, -18.52, 2.19, 1.84, 8.04, repro,
1998-12-20,0.30, -7.52, -5.53, 2.28, 1.86, 8.30, repro,
1998-12-21,0.71, -6.85, -5.82, 2.38, 2.14, 9.20, repro,
1998-12-22,1.20, -6.16, -17.54, 2.37, 2.03, 8.80, repro,
1998-12-23,1.49, -4.49, -17.73, 2.30, 1.96, 8.45, repro,
1998-12-24,2.46, -8.95, -10.10, 2.38, 1.97, 8.82, repro,
1998-12-25,1.74, -11.16, -16.92, 2.35, 2.03, 8.96, repro,
1998-12-26,0.81, -7.69, -9.51, 2.32, 2.00, 8.55, repro,
1998-12-27,0.75, -7.33, -17.38, 2.34, 2.08, 8.95, repro,
1998-12-28,-2.65, -9.14, -6.31, 2.46, 2.10, 9.35, repro,
1998-12-29,-0.04, -4.60, -16.87, 2.38, 1.99, 8.80, repro,
1998-12-30,-0.47, -5.43, -9.18, 2.67, 2.38, 10.46, repro,
1998-12-31,1.41, -5.78, -1.84, 2.23, 1.92, 8.46, repro,
1999-01-01,0.31, -5.50, -21.92, 2.35, 2.01, 8.93, repro,
1999-01-02,0.25, -5.49, -17.69, 2.44, 2.06, 8.98, repro,
1999-01-03,0.31, -4.27, -20.67, 2.27, 1.92, 8.45, repro,
1999-01-04,1.25, -5.40, -9.48, 2.45, 2.10, 9.21, repro,
1999-01-05,-1.47, -5.00, -6.74, 2.42, 2.12, 9.32, repro,
1999-01-06,0.73, -4.36, -11.55, 2.27, 1.98, 8.87, repro,
1999-01-07,1.14, -7.89, -18.94, 2.26, 1.91, 8.56, repro,
1999-01-08,1.68, -5.56, -16.20, 2.20, 1.88, 8.22, repro,
1999-01-09,0.33, -5.25, -23.58, 2.27, 1.90, 8.41, repro,
1999-01-10,1.25, -5.53, -16.20, 2.33, 1.93, 8.87, repro,
1999-01-11,-0.17, -4.65, -13.00, 2.35, 1.95, 8.86, repro,
1999-01-12,0.57, -6.79, -8.04, 2.26, 1.96, 8.40, repro,
1999-01-13,0.97, -6.55, -16.87, 2.32, 1.91, 8.56, repro,
1999-01-14,0.51, -7.82, -12.73, 2.42, 1.98, 8.94, repro,
1999-01-15,2.06, -4.19, -16.59, 2.28, 1.88, 8.39, repro,
1999-01-16,-0.04, -3.89, -6.99, 2.21, 1.82, 8.05, repro,
1999-01-17,-3.52, 0.08, -7.13, 2.24, 1.86, 8.38, repro,
1999-01-18,-6.15, 0.03, 33.33, 2.17, 1.79, 7.97, repro,
1999-01-19,-8.04, 0.82, 22.94, 2.22, 1.83, 8.10, repro,
1999-01-21,-7.24, 0.73, 29.10, 2.36, 1.94, 8.79, repro,
1999-01-22,-8.65, 1.99, 19.40, 2.35, 2.00, 8.87, repro,
1999-01-23,-7.79, 1.72, 43.04, 4.36, 3.67, 17.18, repro,
1999-02-23,-4.17, -8.46, -32.70, 5.24, 4.88, 21.36, repro,
1999-02-24,-0.35, -5.36, -34.46, 2.17, 1.82, 7.93, repro,
1999-02-25,-0.05, -8.50, -15.78, 2.15, 1.79, 7.83, repro,
1999-02-26,-1.81, -7.98, -19.33, 2.22, 1.82, 7.99, repro,
1999-02-27,-0.27, -11.00, -17.46, 2.22, 1.84, 8.09, repro,
1999-02-28,-1.35, -3.33, -28.16, 2.19, 1.81, 8.01, repro,
1999-03-01,-0.43, -5.51, -32.43, 2.27, 1.88, 8.37, repro,
1999-03-02,-0.51, -5.52, -32.45, 2.23, 1.84, 8.14, repro,
1999-03-03,-1.29, -7.63, -18.28, 2.18, 1.82, 8.07, repro,
1999-03-04,-1.11, -5.75, -22.05, 2.17, 1.81, 7.97, repro,
1999-03-05,0.16, -6.26, -24.62, 2.17, 1.80, 7.90, repro,
1999-03-06,-2.30, -7.69, -29.69, 2.21, 1.88, 8.20, repro,
1999-03-07,-1.78, -6.71, -27.96, 2.20, 1.84, 8.11, repro,
1999-03-08,-1.13, -5.44, -33.32, 2.15, 1.79, 7.86, repro,
1999-03-09,-1.43, -9.17, -15.43, 2.18, 1.83, 8.02, repro,
1999-03-10,-0.32, -8.71, -26.46, 2.21, 1.89, 8.29, repro,
1999-03-11,-1.67, -7.65, -21.47, 2.16, 1.81, 7.94, repro,
1999-03-12,-1.88, -7.70, -25.95, 2.25, 1.84, 8.05, repro,
1999-03-13,-1.01, -7.29, -19.55, 2.19, 1.86, 8.08, repro,
1999-03-14,-0.15, -8.63, -22.80, 2.20, 1.79, 7.86, repro,
1999-03-15,-1.71, -8.84, -14.88, 2.27, 1.89, 8.24, repro,
1999-03-16,-1.84, -7.79, -17.80, 2.46, 2.01, 8.87, repro,
1999-03-17,-1.63, -8.10, -21.54, 2.30, 1.91, 8.38, repro,
1999-03-18,-2.13, -8.27, -26.63, 2.25, 1.87, 8.27, repro,
1999-03-19,-1.39, -5.93, -21.97, 2.59, 2.16, 9.58, repro,
1999-03-20,-0.17, -8.06, -16.66, 2.34, 1.99, 8.64, repro,
1999-03-21,-1.38, -8.08, -18.49, 2.21, 1.90, 8.23, repro,
1999-03-22,-0.67, -9.03, -19.63, 2.41, 2.04, 8.97, repro,
1999-03-23,-1.10, -7.54, -24.34, 2.26, 1.91, 8.27, repro,
1999-03-24,-1.39, -11.13, -19.00, 2.39, 1.98, 8.82, repro,
1999-03-25,0.49, -6.61, -19.06, 2.46, 2.07, 9.15, repro,
1999-03-26,-0.96, -8.77, -23.14, 2.47, 2.16, 9.24, repro,
1999-03-27,0.04, -8.53, -25.68, 2.19, 1.88, 8.15, repro,
1999-03-28,-1.19, -8.44, -30.64, 2.28, 1.95, 8.50, repro,
1999-03-29,-1.61, -7.61, -34.53, 2.46, 2.11, 9.25, repro,
1999-03-30,-0.21, -8.91, -23.39, 2.35, 1.96, 8.78, repro,
1999-03-31,-0.92, -9.42, -25.88, 2.55, 2.08, 9.27, repro,
1999-04-01,-1.32, -8.57, -19.35, 2.28, 1.93, 8.38, repro,
1999-04-02,-2.55, -8.27, -27.07, 2.43, 1.98, 8.64, repro,
1999-04-03,0.13, -7.93, -22.59, 2.22, 1.82, 8.01, repro,
1999-04-04,-1.95, -8.83, -18.93, 2.24, 1.84, 8.06, repro,
1999-04-05,-0.68, -10.35, -8.73, 2.52, 2.11, 9.15, repro,
1999-04-06,-0.75, -7.30, -21.40, 2.24, 1.85, 8.13, repro,
1999-04-08,-2.32, -6.60, -25.38, 2.13, 1.79, 7.91, repro,
1999-04-09,-1.79, -9.62, -23.00, 2.22, 1.83, 8.20, repro,
1999-04-10,-0.99, -9.85, -20.47, 2.17, 1.79, 7.89, repro,
1999-04-11,-0.68, -8.05, -16.26, 2.22, 1.85, 8.28, repro,
1999-04-12,-1.58, -8.26, -20.76, 2.21, 1.82, 8.05, repro,
1999-04-13,-2.19, -8.10, -27.00, 2.15, 1.81, 7.95, repro,
1999-04-15,-1.35, -8.13, -25.45, 2.15, 1.80, 7.95, repro,
1999-04-16,-1.74, -7.96, -21.95, 2.18, 1.89, 8.25, repro,
1999-04-17,-1.75, -9.11, -21.47, 2.24, 1.84, 8.19, repro,
1999-04-18,-0.48, -7.44, -26.05, 2.16, 1.79, 7.92, repro,
1999-04-19,-1.30, -10.18, -23.06, 2.16, 1.83, 8.10, repro,
1999-04-20,-0.31, -10.49, -19.47, 2.22, 1.83, 8.30, repro,
1999-04-21,0.42, -12.04, -23.72, 2.19, 1.82, 8.23, repro,
1999-04-22,-1.54, -9.03, -23.10, 2.19, 1.83, 8.26, repro,
1999-04-23,-1.12, -8.82, -12.35, 2.24, 1.84, 8.26, repro,
1999-04-24,-3.30, -8.09, -17.57, 2.26, 1.87, 8.45, repro,
1999-04-25,-1.06, -10.22, -12.37, 2.29, 1.90, 8.51, repro,
1999-04-26,2.38, -7.17, -30.83, 2.19, 1.80, 8.02, repro,
1999-04-27,-2.59, -8.32, -22.09, 2.16, 1.81, 7.96, repro,
1999-04-28,-1.35, -8.58, -26.05, 2.14, 1.78, 7.94, repro,
1999-04-29,-2.50, -8.14, -18.24, 2.18, 1.80, 8.03, repro,
1999-04-30,-2.99, -7.87, -15.80, 2.19, 1.81, 8.03, repro,
1999-05-01,-0.57, -9.55, -20.73, 2.20, 1.83, 8.15, repro,
1999-05-02,-0.71, -10.96, -22.83, 2.15, 1.78, 7.92, repro,
1999-05-03,0.41, -7.13, -3.00, 2.26, 1.91, 8.34, repro,
1999-05-04,-0.70, -8.89, -6.98, 2.23, 1.87, 8.37, repro,
1999-05-05,-1.18, -7.50, -11.37, 2.30, 1.97, 8.38, repro,
1999-05-06,-1.98, -8.87, -21.23, 2.20, 1.88, 8.19, repro,
1999-05-07,-1.25, -7.50, -13.98, 2.14, 1.78, 7.85, repro,
1999-05-08,-1.13, -9.17, -18.64, 2.23, 1.89, 8.20, repro,
1999-05-09,-1.79, -9.81, -22.17, 2.23, 1.89, 8.20, repro,
1999-05-10,-0.99, -11.51, -23.09, 2.20, 1.83, 8.19, repro,
1999-05-11,-1.95, -10.21, -18.44, 2.23, 1.88, 8.20, repro,
1999-05-12,-0.70, -9.76, -25.56, 2.23, 1.91, 8.28, repro,
1999-05-13,0.24, -8.86, -16.45, 2.24, 1.90, 8.28, repro,
1999-05-14,-0.27, -10.68, -17.09, 2.21, 1.86, 8.15, repro,
1999-05-15,0.95, -8.44, -17.66, 2.21, 1.85, 8.12, repro,
1999-05-16,-1.40, -8.00, -18.25, 2.28, 1.91, 8.20, repro,
1999-05-17,-1.55, -7.99, -13.77, 2.28, 1.92, 8.36, repro,
1999-05-18,-0.67, -7.43, -22.01, 2.19, 1.86, 8.05, repro,
1999-05-19,-1.05, -8.26, -20.10, 2.18, 1.78, 8.05, repro,
1999-06-23,-1.49, -5.94, 0.75, 2.26, 1.86, 8.24, repro,
1999-06-24,-2.44, -6.30, -7.77, 2.26, 1.86, 8.14, repro,
1999-06-25,-2.31, -7.03, -11.14, 2.26, 1.89, 8.18, repro,